When you browse on this site, cookies collect data to enhance your experience and personalize the content and advertising you see.
Visit our Privacy Policy to learn more. By continuing to use the site, you agree to this use of cookies and data.
  • In Österreich
  • Länderverzeichnis
  • Für 7 Tage
  • Wassertemperatur
  • Satellitenkarten
  • Wetterkarte
  • News
  • Widgets
  • user-avatar
    Anmelden

    Stündliche Wetter Taba

    Heute, 18 Januar, Freitag

    Zeit Temperatur Niederschläge Wind Luftdruck Luftfeuchtigkeit
    00:00 +5°C° 0 mm 2 m/S 696 mmHg 81%
    01:00 +5°C° 0 mm 2 m/S 695 mmHg 82%
    02:00 +4°C° 0 mm 2 m/S 695 mmHg 84%
    03:00 +4°C° 0 mm 2 m/S 695 mmHg 86%
    04:00 +4°C° 0 mm 2 m/S 695 mmHg 87%
    05:00 +4°C° 0 mm 2 m/S 695 mmHg 88%
    06:00 +5°C° 0 mm 2 m/S 695 mmHg 87%
    07:00 +5°C° 0 mm 2 m/S 695 mmHg 86%
    08:00 +6°C° 0 mm 2 m/S 696 mmHg 82%
    09:00 +7°C° 0 mm 2 m/S 696 mmHg 74%
    10:00 +9°C° 0 mm 3 m/S 696 mmHg 67%
    11:00 +10°C° 0 mm 3 m/S 696 mmHg 59%
    12:00 +11°C° 0 mm 3 m/S 696 mmHg 54%
    13:00 +12°C° 0 mm 3 m/S 695 mmHg 50%
    14:00 +13°C° 0 mm 3 m/S 695 mmHg 45%
    15:00 +12°C° 0 mm 3 m/S 695 mmHg 47%
    16:00 +12°C° 0 mm 3 m/S 695 mmHg 50%
    17:00 +11°C° 0 mm 3 m/S 695 mmHg 53%
    18:00 +10°C° 0 mm 3 m/S 695 mmHg 58%
    19:00 +9°C° 0 mm 3 m/S 695 mmHg 63%
    20:00 +8°C° 0 mm 3 m/S 695 mmHg 67%
    21:00 +8°C° 0 mm 2 m/S 695 mmHg 71%
    22:00 +7°C° 0 mm 2 m/S 695 mmHg 75%
    23:00 +7°C° 0 mm 2 m/S 695 mmHg 79%

    Morgen, 19 Januar, Samstag

    Zeit Temperatur Niederschläge Wind Luftdruck Luftfeuchtigkeit
    00:00 +6°C° 0 mm 2 m/S 695 mmHg 80%
    01:00 +6°C° 0 mm 2 m/S 695 mmHg 82%
    02:00 +6°C° 0 mm 2 m/S 695 mmHg 83%
    03:00 +6°C° 0 mm 2 m/S 694 mmHg 84%
    04:00 +5°C° 0 mm 2 m/S 694 mmHg 84%
    05:00 +5°C° 0 mm 2 m/S 694 mmHg 84%
    06:00 +6°C° 0 mm 2 m/S 694 mmHg 79%
    07:00 +7°C° 0 mm 2 m/S 695 mmHg 75%
    08:00 +7°C° 0 mm 2 m/S 695 mmHg 70%
    09:00 +9°C° 0 mm 2 m/S 695 mmHg 60%
    10:00 +12°C° 0 mm 2 m/S 695 mmHg 49%
    11:00 +13°C° 0 mm 2 m/S 695 mmHg 39%
    12:00 +14°C° 0 mm 2 m/S 695 mmHg 35%
    13:00 +15°C° 0 mm 2 m/S 695 mmHg 30%
    14:00 +16°C° 0 mm 2 m/S 694 mmHg 26%
    15:00 +16°C° 0 mm 2 m/S 694 mmHg 26%
    16:00 +15°C° 0 mm 2 m/S 694 mmHg 26%
    17:00 +14°C° 0 mm 2 m/S 694 mmHg 26%
    18:00 +13°C° 0 mm 2 m/S 694 mmHg 29%
    19:00 +12°C° 0 mm 2 m/S 694 mmHg 31%
    20:00 +10°C° 0 mm 2 m/S 695 mmHg 33%
    21:00 +10°C° 0 mm 2 m/S 695 mmHg 35%
    22:00 +9°C° 0 mm 2 m/S 695 mmHg 38%
    23:00 +9°C° 0 mm 2 m/S 695 mmHg 40%

    übermorgen, 20 Januar, Sonntag

    Zeit Temperatur Niederschläge Wind Luftdruck Luftfeuchtigkeit
    00:00 +8°C° 0 mm 2 m/S 694 mmHg 42%
    01:00 +8°C° 0 mm 2 m/S 694 mmHg 43%
    02:00 +8°C° 0 mm 2 m/S 694 mmHg 44%
    03:00 +7°C° 0 mm 2 m/S 694 mmHg 45%
    04:00 +7°C° 0 mm 2 m/S 694 mmHg 45%
    05:00 +7°C° 0 mm 2 m/S 693 mmHg 46%
    06:00 +9°C° 0 mm 1 m/S 694 mmHg 43%
    07:00 +10°C° 0 mm 1 m/S 694 mmHg 41%
    08:00 +10°C° 0 mm 1 m/S 695 mmHg 39%
    09:00 +12°C° 0 mm 1 m/S 695 mmHg 33%
    10:00 +14°C° 0 mm 1 m/S 695 mmHg 28%
    11:00 +16°C° 0 mm 1 m/S 695 mmHg 22%
    12:00 +18°C° 0 mm 1 m/S 695 mmHg 20%
    13:00 +19°C° 0 mm 1 m/S 694 mmHg 17%
    14:00 +20°C° 0 mm 1 m/S 694 mmHg 15%
    15:00 +19°C° 0 mm 1 m/S 694 mmHg 16%
    16:00 +18°C° 0 mm 1 m/S 694 mmHg 17%
    17:00 +16°C° 0 mm 1 m/S 693 mmHg 18%
    18:00 +15°C° 0 mm 1 m/S 694 mmHg 20%
    19:00 +14°C° 0 mm 1 m/S 694 mmHg 21%
    20:00 +13°C° 0 mm 1 m/S 694 mmHg 23%
    21:00 +13°C° 0 mm 1 m/S 694 mmHg 23%
    22:00 +14°C° 0 mm 1 m/S 694 mmHg 23%
    23:00 +14°C° 0 mm 2 m/S 694 mmHg 24%

    21 Januar, Montag

    Zeit Temperatur Niederschläge Wind Luftdruck Luftfeuchtigkeit
    00:00 +13°C° 0 mm 2 m/S 694 mmHg 24%
    01:00 +13°C° 0 mm 1 m/S 694 mmHg 24%
    02:00 +13°C° 0 mm 1 m/S 693 mmHg 24%
    03:00 +12°C° 0 mm 1 m/S 693 mmHg 25%
    04:00 +12°C° 0 mm 1 m/S 692 mmHg 26%
    05:00 +10°C° 0 mm 0 m/S 692 mmHg 27%
    06:00 +11°C° 0 mm 0 m/S 693 mmHg 25%
    07:00 +13°C° 0 mm 1 m/S 693 mmHg 22%
    08:00 +14°C° 0 mm 1 m/S 693 mmHg 20%
    09:00 +16°C° 0 mm 1 m/S 694 mmHg 17%
    10:00 +19°C° 0 mm 1 m/S 694 mmHg 14%
    11:00 +19°C° 0 mm 2 m/S 694 mmHg 11%
    12:00 +20°C° 0 mm 2 m/S 694 mmHg 11%
    13:00 +20°C° 0 mm 3 m/S 694 mmHg 11%
    14:00 +21°C° 0 mm 3 m/S 693 mmHg 12%
    15:00 +20°C° 0 mm 3 m/S 693 mmHg 14%
    16:00 +19°C° 0 mm 3 m/S 693 mmHg 16%
    17:00 +17°C° 0 mm 4 m/S 693 mmHg 18%
    18:00 +16°C° 0 mm 3 m/S 693 mmHg 20%
    19:00 +14°C° 0 mm 3 m/S 694 mmHg 22%
    20:00 +14°C° 0 mm 2 m/S 694 mmHg 24%
    21:00 +14°C° 0 mm 2 m/S 694 mmHg 25%
    22:00 +13°C° 0 mm 2 m/S 694 mmHg 26%
    23:00 +12°C° 0 mm 2 m/S 694 mmHg 27%

    22 Januar, Dienstag

    Zeit Temperatur Niederschläge Wind Luftdruck Luftfeuchtigkeit
    00:00 +12°C° 0 mm 2 m/S 693 mmHg 28%
    01:00 +12°C° 0 mm 2 m/S 693 mmHg 30%
    02:00 +11°C° 0 mm 1 m/S 693 mmHg 32%
    03:00 +11°C° 0 mm 1 m/S 693 mmHg 33%
    04:00 +10°C° 0 mm 1 m/S 692 mmHg 35%
    05:00 +10°C° 0 mm 1 m/S 692 mmHg 37%
    06:00 +11°C° 0 mm 1 m/S 693 mmHg 36%
    07:00 +12°C° 0 mm 1 m/S 693 mmHg 34%
    08:00 +12°C° 0 mm 1 m/S 693 mmHg 33%
    09:00 +14°C° 0 mm 1 m/S 694 mmHg 29%
    10:00 +16°C° 0 mm 1 m/S 694 mmHg 26%
    11:00 +18°C° 0 mm 1 m/S 694 mmHg 22%
    12:00 +18°C° 0 mm 2 m/S 694 mmHg 21%
    13:00 +19°C° 0 mm 2 m/S 693 mmHg 20%
    14:00 +19°C° 0 mm 2 m/S 693 mmHg 19%
    15:00 +19°C° 0 mm 2 m/S 693 mmHg 21%
    16:00 +18°C° 0 mm 2 m/S 692 mmHg 22%
    17:00 +17°C° 0 mm 3 m/S 692 mmHg 23%
    18:00 +16°C° 0 mm 2 m/S 692 mmHg 26%
    19:00 +15°C° 0 mm 2 m/S 692 mmHg 28%
    20:00 +14°C° 0 mm 2 m/S 693 mmHg 31%
    21:00 +13°C° 0 mm 2 m/S 692 mmHg 32%
    22:00 +13°C° 0 mm 1 m/S 692 mmHg 34%
    23:00 +12°C° 0 mm 1 m/S 692 mmHg 35%

    23 Januar, Mittwoch

    Zeit Temperatur Niederschläge Wind Luftdruck Luftfeuchtigkeit
    00:00 +12°C° 0 mm 1 m/S 692 mmHg 36%
    01:00 +11°C° 0 mm 1 m/S 692 mmHg 36%
    02:00 +10°C° 0 mm 2 m/S 691 mmHg 37%
    03:00 +9°C° 0 mm 2 m/S 691 mmHg 38%
    04:00 +9°C° 0 mm 2 m/S 691 mmHg 38%
    05:00 +9°C° 0 mm 2 m/S 691 mmHg 39%
    06:00 +9°C° 0 mm 2 m/S 692 mmHg 37%
    07:00 +11°C° 0 mm 1 m/S 692 mmHg 34%
    08:00 +12°C° 0 mm 1 m/S 692 mmHg 32%
    09:00 +14°C° 0 mm 1 m/S 693 mmHg 29%
    10:00 +15°C° 0 mm 1 m/S 693 mmHg 25%
    11:00 +18°C° 0 mm 1 m/S 693 mmHg 21%
    12:00 +19°C° 0 mm 1 m/S 692 mmHg 19%
    13:00 +19°C° 0 mm 1 m/S 692 mmHg 17%
    14:00 +20°C° 0 mm 1 m/S 692 mmHg 16%
    15:00 +20°C° 0 mm 1 m/S 692 mmHg 17%
    16:00 +18°C° 0 mm 2 m/S 691 mmHg 18%
    17:00 +17°C° 0 mm 2 m/S 691 mmHg 19%
    18:00 +16°C° 0 mm 2 m/S 691 mmHg 22%
    19:00 +15°C° 0 mm 1 m/S 691 mmHg 25%
    20:00 +14°C° 0 mm 1 m/S 691 mmHg 28%
    21:00 +13°C° 0 mm 1 m/S 691 mmHg 29%
    22:00 +13°C° 0 mm 1 m/S 691 mmHg 30%
    23:00 +13°C° 0 mm 1 m/S 691 mmHg 31%
    Mehr zeigen